Weather History for Ukiah, CA

Change the Weather History Date:

Wednesday, May 28, 2014

  Actual Average Record
Temperature  
Mean Temperature 64 °F 64 °F  
Max Temperature 77 °F 79 °F 105 °F (1984)
Min Temperature 51 °F 48 °F 34 °F (1918)
Degree Days  
Heating Degree Days 2 3  
Month to date heating degree days 132  
Since 1 July heating degree days 3078  
Cooling Degree Days 0 2  
Month to date cooling degree days 42  
Year to date cooling degree days 50  
Growing Degree Days 14 (Base 50)    
Moisture  
Dew Point 36 °F    
Average Humidity 36    
Maximum Humidity 55    
Minimum Humidity 17    
Precipitation  
Precipitation 0.00 in 0.03 in 1.71 in (1998)
Month to date precipitation T 1.34  
Year to date precipitation 16.63 22.96  
Since 1 July precipitation 18.55 36.93  
Snow  
Snow 0.00 in - - ()
Month to date snowfall 0.0  
Since 1 July snowfall 0.0  
Snow Depth -    
Sea Level Pressure  
Sea Level Pressure 30.05 in    
Wind  
Wind Speed 10 mph (NNW)    
Max Wind Speed 20 mph    
Max Gust Speed 26 mph    
Visibility 10 miles    
Events      
T = Trace of Precipitation, MM = Missing Value Source: NWS Daily Summary

Daily Weather History Graph

Daily Weather History Graph

Search for Another Location

Airport:

Trip Planner

Search our weather history database for the weather conditions in past years. The results will help you decide how hot, cold, wet, or windy it might be!

Date:

Astronomy

May. 28, 2014 Rise Set
Actual Time 5:50 AM PDT 8:30 PM PDT
Civil Twilight 5:19 AM PDT 9:01 PM PDT
Nautical Twilight 4:40 AM PDT 9:40 PM PDT
Astronomical Twilight 3:56 AM PDT 10:24 PM PDT
Moon 6:00 AM PDT (5/28) 8:34 PM PDT (5/28)
Length of Visible Light 15h 42m
Length of Day
14h 39m
New Moon, 0% of the Moon is Illuminated
May 28
New Moon
Jun 5
First Quarter
Jun 12
Full
Jun 19
Last Quarter
Jun 27
New

Hourly Weather History & Observations

Time (PDT) Temp. Dew Point Humidity Pressure Visibility Wind Dir Wind Speed Gust Speed Precip Events Conditions
12:56 AM 55.0 °F 39.0 °F 55% 30.09 in 10.0 mi North 8.1 mph - N/A   Clear
2:56 AM 53.1 °F 36.0 °F 52% 30.09 in 10.0 mi North 9.2 mph - N/A   Clear
3:56 AM 52.0 °F 36.0 °F 54% 30.09 in 10.0 mi NNE 9.2 mph - N/A   Clear
6:56 AM 54.0 °F 35.1 °F 49% 30.10 in 10.0 mi North 8.1 mph - N/A   Clear
7:56 AM 57.0 °F 36.0 °F 45% 30.11 in 10.0 mi North 8.1 mph - N/A   Clear
8:56 AM 61.0 °F 35.1 °F 38% 30.11 in 10.0 mi North 13.8 mph 20.7 mph N/A   Clear
9:56 AM 64.0 °F 32.0 °F 30% 30.10 in 10.0 mi NNW 17.3 mph 24.2 mph N/A   Clear
10:56 AM 68.0 °F 30.0 °F 24% 30.08 in 10.0 mi NNW 15.0 mph 21.9 mph N/A   Clear
11:56 AM 71.1 °F 28.0 °F 20% 30.07 in 10.0 mi NNW 13.8 mph 20.7 mph N/A   Clear
12:56 PM 73.9 °F 27.0 °F 18% 30.05 in 10.0 mi Variable 4.6 mph 18.4 mph N/A   Clear
2:56 PM 75.9 °F 36.0 °F 23% 30.02 in 10.0 mi NW 10.4 mph 18.4 mph N/A   Clear
3:56 PM 75.9 °F 36.0 °F 23% 30.02 in 10.0 mi NW 12.7 mph - N/A   Clear
4:56 PM 73.9 °F 37.9 °F 27% 30.00 in 10.0 mi WNW 15.0 mph - N/A   Clear
5:56 PM 73.0 °F 39.0 °F 29% 29.99 in 10.0 mi West 8.1 mph 20.7 mph N/A   Clear
6:56 PM 72.0 °F 39.9 °F 31% 29.99 in 10.0 mi WNW 5.8 mph - N/A   Clear
8:56 PM 64.0 °F 42.1 °F 45% 30.00 in 10.0 mi Calm Calm - N/A   Clear
9:56 PM 60.1 °F 42.1 °F 51% 30.01 in 10.0 mi Calm Calm - N/A   Clear
10:56 PM 57.0 °F 42.1 °F 57% 30.02 in 10.0 mi Calm Calm - N/A   Clear
11:56 PM 55.9 °F 42.1 °F 60% 30.02 in 10.0 mi SSW 3.5 mph - N/A   Clear